[[{"header":{"parameterUnit":"m.s-1","parameterCategory":1,"la1":30.2991,"la2":30.254,"lo1":-89.0895,"lo2":-89.0444,"dy":0.0017,"dx":0.0017,"nx":28,"ny":28,"refTime":"2024-05-29T03:00:00:Z","depth":0,"parameterNumber":2,"parameterNumberName":"U-component_of_WINDS"},"data":[0,0,0,0,0,0,0,0,0,0,0,0,0,0,0,0,0,0,0,0,0,0,0,0,0,0,0,0,0,0,0,0,0,0,0,0,0,0,0,0,0,0,0,0,0,0,0,0,0,0,0,0,0,0,0,0,0,0,0.6158,0.616,0,0.6276,0.6277,0.6279,0.6333,0.6333,0.6332,0.6332,0.6451,0.6454,0.6458,0,0,0,0,0,0,0,0,0,0,0,0,0,0.5976,0.5979,0.6158,0.616,0.6161,0.6276,0.6277,0.6279,0.6333,0.6333,0.6332,0.6332,0.645,0.6454,0.6458,0,0,0,0,0,0,0,0,0,0,0,0,0,0.6071,0.598,0.6158,0.6202,0.6207,0.6276,0.6278,0.6279,0.6333,0.6333,0.6332,0.6332,0.6449,0.6454,0.6459,0.6492,0,0,0.6473,0.6476,0,0,0,0,0,0,0,0,0.6065,0.6077,0.6194,0.6199,0.6205,0.629,0.6257,0.6351,0.6333,0.6285,0.6332,0.6332,0.6397,0.6407,0.6429,0.6497,0.6503,0.6474,0.6477,0.6479,0.648,0,0,0,0,0,0,0,0.6059,0.6073,0.6205,0.6195,0.6202,0.6214,0.6228,0.6275,0.6341,0.6289,0.6293,0.6307,0.64,0.6424,0.6432,0.6504,0.6474,0.6478,0.6481,0.6483,0.6604,0.6604,0,0,0,0,0,0,0.6045,0.6067,0.6201,0.6208,0.6133,0.6218,0.6233,0.6262,0.634,0.6352,0.6307,0.6309,0.6416,0.6426,0.6437,0.648,0.6479,0.6484,0.6486,0.6603,0.6604,0.6604,0,0,0,0,0,0,0.6041,0.6057,0.6196,0.6139,0.6157,0.6221,0.6254,0.6265,0.6289,0.6354,0.6365,0.6319,0.6416,0.643,0.6477,0.6485,0.6486,0.649,0.6603,0.6603,0.6604,0.6566,0,0,0,0,0,0,0.6036,0.6055,0.6069,0.6139,0.616,0.6236,0.6255,0.6267,0.6297,0.6301,0.6368,0.6379,0.6417,0.647,0.6482,0.6491,0.6494,0.6603,0.6603,0.6604,0.6567,0.6566,0.6564,0,0,0,0,0,0.6029,0.6054,0.607,0.6086,0.618,0.6236,0.6249,0.6292,0.6298,0.6312,0.6353,0.6377,0.6481,0.6474,0.6489,0.6499,0.6602,0.6603,0.6604,0.6568,0.6566,0.6564,0,0,0,0,0,0,0.5984,0.6064,0.6082,0.6131,0.6176,0.6245,0.6265,0.6289,0.6333,0.6335,0.6387,0.6401,0.6444,0.6476,0.6467,0.6534,0.6544,0.6547,0.6512,0.651,0.6509,0.65,0.6498,0,0,0,0,0,0.598,0.602,0.6088,0.6124,0.6146,0.6201,0.6227,0.6257,0.6306,0.6325,0.637,0.6416,0.6459,0.6486,0.653,0.6572,0.6586,0.6586,0.6584,0.6583,0.6585,0.6608,0.6608,0.6606,0.6606,0.6606,0,0,0.5971,0.602,0.6042,0.6116,0.6155,0.6194,0.6217,0.6258,0.6288,0.6331,0.6379,0.6413,0.6468,0.6512,0.6534,0.6541,0.6589,0.6583,0.6582,0.6585,0.6609,0.6609,0.6609,0.6606,0.6606,0.6606,0,0,0.5976,0.6018,0.6052,0.609,0.6148,0.6184,0.6192,0.6257,0.6282,0.633,0.6363,0.6398,0.6472,0.6509,0.6537,0.6553,0.6576,0.6565,0.6557,0.6578,0.6579,0.6579,0.6584,0.6585,0.6568,0.6567,0.6567,0,0.5958,0.602,0.6066,0.6105,0.6136,0.6177,0.6211,0.6245,0.6314,0.6333,0.634,0.6431,0.6471,0.6524,0.6527,0.6549,0.6559,0.6559,0.6575,0.6576,0.6577,0.6582,0.6584,0.6566,0.6566,0.6566,0.6566,0,0.5995,0.6037,0.6057,0.6123,0.6155,0.6191,0.6241,0.6269,0.6294,0.6329,0.6377,0.6425,0.6479,0.6493,0.6519,0.6549,0.6551,0.6565,0.6576,0.6575,0.658,0.6583,0.6563,0.6564,0.6564,0.6565,0,0,0.5976,0.6065,0.6072,0.6102,0.6168,0.6201,0.6237,0.6289,0.6311,0.6356,0.6388,0.6448,0.6461,0.6493,0.6523,0.6542,0.6549,0.6554,0.6556,0.6551,0.6584,0.6573,0.6574,0.6565,0.6565,0.6566,0.6579,0,0.599,0.606,0.6101,0.6153,0.6191,0.6229,0.6261,0.6304,0.6337,0.6373,0.6409,0.6451,0.6465,0.6485,0.6505,0.6544,0.6557,0.6544,0.6593,0.6595,0.6579,0.6577,0.6566,0.6577,0.6582,0.6582,0.6582,0,0.6016,0.6061,0.6116,0.6176,0.6194,0.6222,0.6272,0.6307,0.6355,0.6378,0.6412,0.6442,0.648,0.6487,0.654,0.653,0.6552,0.6574,0.6576,0.6582,0.6589,0.6584,0.6581,0.6583,0.6586,0.6586,0.6586,0,0.5996,0.607,0.6113,0.6137,0.6208,0.6226,0.6257,0.6305,0.6333,0.6376,0.6394,0.6441,0.6467,0.6501,0.6542,0.6543,0.659,0.66,0.6609,0.6608,0.6618,0.6617,0.6619,0.6632,0.6632,0.6632,0.6632,0,0.6007,0.604,0.6104,0.6131,0.6167,0.6213,0.6248,0.6281,0.6323,0.6355,0.6391,0.642,0.6471,0.6506,0.6538,0.6576,0.6588,0.6606,0.6614,0.6603,0.66,0.6619,0.6619,0.6632,0.6632,0.6632,0.6632,0,0.5992,0.6037,0.6086,0.6149,0.6165,0.6189,0.6242,0.6268,0.6302,0.6342,0.6354,0.6407,0.645,0.6493,0.6551,0.6572,0.6609,0.662,0.6593,0.6597,0.6603,0.6602,0.6617,0.6621,0.6631,0.6631,0.6631,0,0.5997,0.6022,0.6088,0.6112,0.6142,0.618,0.6209,0.6254,0.6282,0.6337,0.6356,0.6401,0.644,0.6506,0.6549,0.6592,0.6605,0.6607,0.6612,0.6599,0.6604,0.6602,0.6604,0.6605,0.6605,0.6605,0.6605,0,0.5999,0.602,0.606,0.6107,0.614,0.6179,0.622,0.6237,0.629,0.6319,0.6363,0.6393,0.6451,0.6495,0.6543,0.6573,0.6597,0.6603,0.6607,0.6596,0.6579,0.6587,0.6588,0.6602,0.6603,0.6603,0.6603,0.6603,0.5994,0.6018,0.6067,0.611,0.6145,0.6182,0.6209,0.6245,0.6283,0.6335,0.6358,0.6402,0.6448,0.6515,0.6544,0.6578,0.6585,0.6591,0.6592,0.6593,0.659,0.6573,0.6587,0.6587,0.6587,0.6587,0.6587,0,0.5998,0.6031,0.607,0.6126,0.6159,0.6178,0.6223,0.625,0.6288,0.6329,0.6366,0.6415,0.6457,0.6502,0.6547,0.6565,0.6577,0.6575,0.6574,0.658,0.6582,0.6574,0.6564,0.6564,0.6564,0.6564,0.6564,0.6564,0.6004,0.6046,0.6071,0.6129,0.6162,0.6206,0.623,0.6263,0.6295,0.6349,0.6384,0.6414,0.6456,0.6503,0.6542,0.6554,0.6568,0.6563,0.6578,0.6579,0.658,0.6582,0.6575,0.6566,0.6566,0.6574,0.6574,0.6574]},{"header":{"parameterUnit":"m.s-1","parameterCategory":1,"la1":30.2991,"la2":30.254,"lo1":-89.0895,"lo2":-89.0444,"dy":0.0017,"dx":0.0017,"nx":28,"ny":28,"refTime":"2024-05-29T03:00:00:Z","depth":0,"parameterNumber":3,"parameterNumberName":"V-component_of_WINDS"},"data":[0,0,0,0,0,0,0,0,0,0,0,0,0,0,0,0,0,0,0,0,0,0,0,0,0,0,0,0,0,0,0,0,0,0,0,0,0,0,0,0,0,0,0,0,0,0,0,0,0,0,0,0,0,0,0,0,0,0,3.6133,3.6133,0,3.6111,3.6111,3.6111,3.6081,3.608,3.608,3.6079,3.6057,3.6056,3.6056,0,0,0,0,0,0,0,0,0,0,0,0,0,3.6149,3.6149,3.6133,3.6133,3.6133,3.6111,3.6111,3.611,3.6081,3.608,3.608,3.6079,3.6057,3.6056,3.6056,0,0,0,0,0,0,0,0,0,0,0,0,0,3.6136,3.6149,3.6133,3.6115,3.6113,3.6111,3.6111,3.611,3.6081,3.608,3.6079,3.6079,3.6057,3.6056,3.6056,3.607,0,0,3.6056,3.6055,0,0,0,0,0,0,0,0,3.6137,3.6136,3.6118,3.6116,3.6114,3.6098,3.6108,3.6097,3.6081,3.6093,3.6079,3.6078,3.6071,3.6069,3.6067,3.6069,3.6068,3.6056,3.6055,3.6055,3.6055,0,0,0,0,0,0,0,3.6138,3.6137,3.6124,3.6118,3.6116,3.6108,3.6105,3.6106,3.6086,3.6092,3.609,3.6088,3.607,3.6067,3.6066,3.6067,3.6056,3.6055,3.6055,3.6055,3.6078,3.6079,0,0,0,0,0,0,3.6142,3.6137,3.6125,3.6124,3.6124,3.6108,3.6105,3.6104,3.6086,3.6083,3.6088,3.6086,3.6068,3.6066,3.6065,3.6079,3.6055,3.6055,3.6055,3.6077,3.6078,3.6079,0,0,0,0,0,0,3.6142,3.6141,3.6126,3.613,3.6128,3.6109,3.6107,3.6104,3.6101,3.6084,3.608,3.6089,3.6067,3.6066,3.6069,3.6078,3.6055,3.6055,3.6077,3.6078,3.6079,3.6107,0,0,0,0,0,0,3.6143,3.6141,3.6146,3.613,3.6127,3.613,3.6108,3.6104,3.6101,3.6098,3.6084,3.608,3.6067,3.6069,3.6068,3.6077,3.6055,3.6076,3.6077,3.6078,3.6105,3.6109,3.6112,0,0,0,0,0,3.6143,3.6155,3.6146,3.6145,3.6133,3.613,3.6129,3.6113,3.6102,3.6106,3.6095,3.6081,3.6077,3.607,3.6069,3.6077,3.6075,3.6077,3.6078,3.6103,3.6108,3.6112,0,0,0,0,0,0,3.6172,3.6153,3.6143,3.615,3.6142,3.6125,3.613,3.6118,3.6113,3.6111,3.6091,3.6088,3.6093,3.6086,3.6078,3.6089,3.6074,3.6075,3.6093,3.6097,3.6101,3.6102,3.6054,0,0,0,0,0,3.6179,3.6179,3.6162,3.6169,3.6166,3.6149,3.6147,3.6136,3.6127,3.6123,3.6112,3.6104,3.6101,3.6099,3.6095,3.6104,3.61,3.611,3.6113,3.6116,3.6117,3.612,3.6124,3.6085,3.6085,3.6085,0,0,3.6194,3.6183,3.6184,3.6175,3.6167,3.6167,3.6146,3.6147,3.6146,3.6123,3.6125,3.6117,3.6106,3.6112,3.6114,3.6106,3.6127,3.6118,3.6121,3.612,3.6122,3.6126,3.6129,3.6086,3.6086,3.6085,0,0,3.622,3.6212,3.6217,3.621,3.6199,3.6188,3.619,3.6175,3.6168,3.617,3.6153,3.6152,3.6147,3.614,3.6136,3.616,3.6146,3.6159,3.6177,3.618,3.6183,3.6186,3.6193,3.6196,3.6161,3.6161,3.6161,0,3.6239,3.6237,3.6221,3.6223,3.6219,3.6199,3.6203,3.6197,3.6186,3.6184,3.6175,3.6168,3.616,3.6163,3.6169,3.6167,3.6167,3.616,3.6184,3.6187,3.6189,3.6195,3.6198,3.6162,3.6162,3.6162,3.6162,0,3.6261,3.626,3.6266,3.6255,3.6252,3.6255,3.6239,3.6238,3.6227,3.6217,3.6219,3.6208,3.6202,3.6202,3.6192,3.6204,3.6199,3.6188,3.6172,3.6194,3.62,3.6202,3.6165,3.6164,3.6164,3.6163,0,0,3.6302,3.6283,3.6285,3.628,3.6267,3.6266,3.6268,3.6262,3.6261,3.6254,3.6255,3.6251,3.6241,3.6236,3.6225,3.6228,3.6246,3.6216,3.6215,3.622,3.6257,3.6264,3.6267,3.6237,3.6238,3.6238,3.6257,0,3.6324,3.6326,3.6312,3.6318,3.6317,3.6298,3.63,3.6292,3.6283,3.6281,3.6271,3.6268,3.6255,3.6252,3.6254,3.6243,3.6253,3.6242,3.6237,3.6237,3.6238,3.6271,3.6278,3.6297,3.626,3.626,3.626,0,3.6349,3.6344,3.635,3.6336,3.6335,3.6337,3.6329,3.6328,3.6318,3.6312,3.6307,3.6294,3.6295,3.6281,3.6281,3.6274,3.6272,3.6266,3.6266,3.6264,3.6248,3.6267,3.6302,3.6304,3.6264,3.6264,3.6263,0,3.6377,3.6371,3.6373,3.637,3.6354,3.6356,3.635,3.634,3.6337,3.6331,3.6328,3.6323,3.6319,3.6315,3.6301,3.6292,3.6302,3.6288,3.6295,3.6296,3.6297,3.6296,3.633,3.6298,3.6298,3.6298,3.6298,0,3.6401,3.6405,3.6385,3.6387,3.639,3.6375,3.6379,3.6371,3.6362,3.6361,3.6346,3.6345,3.6327,3.6325,3.6314,3.6315,3.6314,3.6308,3.6304,3.6308,3.6308,3.6304,3.6302,3.6299,3.6299,3.6299,3.6298,0,3.6432,3.6419,3.642,3.6406,3.6402,3.6405,3.6393,3.6393,3.6384,3.6383,3.6382,3.6366,3.6363,3.6349,3.6341,3.6334,3.6338,3.6333,3.6341,3.6338,3.6346,3.6345,3.6377,3.638,3.6348,3.6348,3.6349,0,3.6447,3.6449,3.6436,3.6434,3.6428,3.6426,3.6423,3.6408,3.6405,3.6395,3.6397,3.6392,3.6387,3.6381,3.6369,3.6364,3.6357,3.6369,3.6356,3.6359,3.6355,3.6355,3.6354,3.6371,3.6371,3.6372,3.6372,0,3.6475,3.6469,3.6465,3.6459,3.6456,3.6451,3.6444,3.6444,3.6427,3.6425,3.6421,3.6417,3.641,3.6405,3.6397,3.639,3.6378,3.6376,3.6378,3.638,3.6384,3.638,3.6346,3.6375,3.6375,3.6375,3.6374,3.6374,3.6497,3.6498,3.6489,3.6485,3.6479,3.6473,3.6473,3.6463,3.646,3.6453,3.6444,3.6441,3.6432,3.642,3.6414,3.6411,3.6405,3.6407,3.6407,3.6407,3.6409,3.6386,3.641,3.641,3.641,3.641,3.641,0,3.6523,3.6516,3.6513,3.6505,3.6502,3.6492,3.6484,3.6482,3.648,3.6472,3.6468,3.6463,3.6458,3.6446,3.644,3.644,3.6434,3.6439,3.6437,3.6436,3.6416,3.6414,3.6443,3.6443,3.6443,3.6443,3.6443,3.6443,3.6536,3.6537,3.653,3.6528,3.6521,3.6517,3.6514,3.6509,3.6503,3.6498,3.6494,3.6486,3.6477,3.647,3.6465,3.6461,3.6459,3.6465,3.646,3.6441,3.6437,3.6434,3.6433,3.6465,3.6465,3.648,3.648,3.648]}]]